Probability
0 0 0 0 0 0 0 0 0 0 0 0 0 0 0 0 0 0 0 0 0 0 0 0 0 0 0 0 0 0 0 0 0 0 0 0 0 0 0 3 0 0 0
0 0 0 0 0 0 0 0 0 0 0 0 0 0 0 0 0 0 0 0 0 0 0 0 0 0 0 0 0 0 0 0 0 0 0 0 0 0 0 0 0 0 0
0 0 0 0 0 0 0 0 0 0 0 0 0 0 0 0 0 0 0 0 0 0 0 0 0 0 0 0 0 0 0 0 0 0 0 0 0 0 0 0 0 0 0
0 0 0 0 0 0 0 0 0 0 0 0 0 0 0 0 0 0 0 0 0 0 0 0 0 0 0 0 0 0 0 0 0 0 0 0 0 0 0 0 0 0 0
0 0 0 0 0 0 0 0 0 0 0 0 0 0 0 0 0 0 0 0 0 0 0 0 0 0 0 0 0 0 0 0 0 0 0 0 0 0 0 0 0 0 0
0 0 0 0 0 0 0 0 0 0 0 0 0 0 0 0 0 0 0 0 0 0 0 0 0 0 0 0 0 0 0 0 0 0 0 0 0 0 0 0 0 0 0
0 0 0 0 0 0 0 0 0 0 0 0 0 0 0 0 0 0 0 0 0 0 0 0 0 0 0 0 0 0 0 0 0 0 0 0 0 0 0 0 0 0 0
0 0 0 0 0 0 0 0 0 0 0 0 0 0 0 0 0 0 0 0 0 0 0 0 0 0 0 0 0 0 0 0 0 0 0 0 0 0 0 0 0 0 0
0 0 0 0 0 0 0 0 0 0 0 0 0 0 0 0 0 0 0 0 0 0 0 0 0 0 0 0 0 0 0 0 0 0 0 0 0 0 0 0 0 0 0
0 0 0 0 0 0 0 0 0 0 0 0 0 0 0 0 0 0 0 0 0 0 0 0 0 0 0 0 0 0 0 0 0 0 0 0 0 0 0 0 0 0 0
0 0 0 0 0 0 0 0 0 0 0 0 0 0 0 0 0 0 0 0 0 0 0 0 0 0 0 0 0 0 0 0 0 0 0 0 0 0 0 0 0 0 0
0 0 0 0 0 0 0 0 0 0 0 0 0 0 0 0 0 0 0 0 0 0 0 0 0 0 0 0 0 0 0 0 0 0 0 0 0 0 0 0 0 0 0
0 0 0 0 0 0 0 0 0 0 0 0 0 0 0 0 0 0 0 0 0 0 0 0 0 0 0 0 0 0 0 0 0 0 0 0 0 0 0 0 0 0 0
0 0 0 0 0 0 0 0 0 0 0 0 0 0 0 0 0 0 0 0 0 0 0 0 0 0 0 0 0 0 0 0 0 0 0 0 0 0 0 0 0 0 0
0 0 0 0 0 0 0 0 0 0 0 0 0 0 0 0 0 0 0 0 0 0 0 0 0 0 0 0 0 0 0 0 0 0 0 0 0 0 0 0 0 0 0
0 0 0 0 0 0 0 0 0 0 0 0 0 0 0 0 0 0 0 0 0 0 0 0 0 0 0 0 0 0 0 0 0 0 0 0 0 0 0 0 0 0 0
0 0 0 0 0 0 0 0 0 0 0 0 0 0 0 0 0 0 0 0 0 0 0 0 0 0 0 0 0 0 0 0 0 0 0 0 0 0 0 0 0 0 0
0 0 0 0 0 0 0 0 0 0 0 0 0 0 0 0 0 0 0 0 0 0 0 0 0 0 0 0 0 0 0 0 0 0 0 0 0 0 0 0 0 0 0
0 0 0 0 0 0 0 0 0 0 0 0 0 0 0 0 0 0 0 0 0 0 0 0 0 0 0 0 0 0 0 0 0 0 0 0 0 0 0 0 0 0 0
0 0 0 0 0 0 0 0 0 0 0 0 0 0 0 0 0 0 0 0 0 0 0 0 0 0 0 0 0 0 0 0 0 0 0 0 0 0 0 0 0 0 0
0 0 0 0 0 0 0 0 0 0 0 0 0 0 0 0 0 0 0 0 0 0 0 0 0 0 0 0 0 0 0 0 0 0 0 0 0 0 0 0 0 0 0
0 0 0 0 0 0 0 0 0 0 0 0 0 0 0 0 0 0 0 0 0 0 0 0 0 0 0 0 0 0 0 0 0 0 0 0 0 0 0 0 0 0 0
0 0 0 0 0 0 0 0 0 0 0 0 0 0 0 0 0 0 0 0 0 0 0 0 0 0 0 0 0 0 0 0 0 0 0 0 0 0 0 0 0 0 0
0 0 0 0 0 0 0 0 0 0 0 0 0 0 0 0 0 0 0 0 0 0 0 0 0 0 0 0 0 0 0 0 0 0 0 0 0 0 0 0 0 0 0
0 0 0 0 0 0 0 0 0 0 0 0 0 0 0 0 0 0 0 0 0 0 0 0 0 0 0 0 0 0 0 0 0 0 0 0 0 0 0 0 0 0 0
0 0 0 0 0 0 0 0 0 0 0 0 0 0 0 0 0 0 0 0 0 0 0 0 0 0 0 0 0 0 0 0 0 0 0 0 0 0 0 0 0 0 0
Height
5878 5877 5876 5876 5875 5874 5873 5872 5871 5870 5868 5867 5866 5865 5864 5863 5861 5860 5858 5857 5856 5855 5854 5854 5853 5853 5853 5853 5853 5853 5854 5856 5857 5858 5859 5861 5864 5866 5868 5870 5872 5873 5874
5877 5876 5875 5874 5873 5871 5870 5869 5868 5866 5865 5864 5862 5861 5860 5858 5857 5855 5854 5852 5850 5849 5848 5847 5846 5846 5846 5846 5846 5846 5847 5849 5850 5850 5851 5853 5856 5858 5861 5864 5866 5868 5869
5876 5875 5873 5872 5870 5869 5868 5866 5865 5863 5861 5860 5858 5856 5854 5853 5851 5849 5848 5846 5844 5843 5841 5840 5838 5837 5837 5837 5838 5838 5839 5840 5842 5842 5842 5845 5847 5849 5852 5855 5858 5861 5863
5875 5873 5871 5870 5868 5867 5865 5863 5861 5859 5857 5855 5853 5851 5848 5846 5844 5842 5840 5838 5836 5835 5833 5832 5830 5829 5828 5827 5828 5828 5829 5831 5832 5832 5833 5835 5837 5839 5842 5846 5849 5853 5856
5873 5871 5869 5867 5866 5864 5861 5859 5857 5855 5853 5850 5847 5845 5842 5839 5836 5834 5831 5829 5827 5825 5823 5822 5820 5819 5818 5817 5816 5817 5818 5819 5821 5821 5822 5825 5826 5828 5832 5835 5838 5842 5847
5870 5869 5867 5864 5862 5860 5857 5855 5852 5849 5847 5844 5840 5837 5834 5831 5828 5824 5821 5818 5815 5813 5811 5809 5807 5806 5805 5804 5804 5803 5804 5806 5808 5809 5810 5812 5815 5816 5820 5823 5827 5831 5836
5867 5865 5863 5861 5858 5855 5852 5849 5846 5843 5839 5836 5832 5828 5825 5821 5817 5813 5810 5806 5803 5799 5796 5794 5792 5790 5789 5788 5788 5788 5788 5790 5792 5794 5796 5798 5801 5803 5806 5810 5815 5819 5823
5864 5861 5859 5856 5853 5849 5846 5842 5838 5835 5831 5827 5823 5818 5814 5809 5805 5801 5797 5793 5789 5785 5781 5777 5774 5772 5771 5770 5769 5769 5770 5772 5774 5775 5778 5782 5785 5788 5791 5796 5801 5806 5810
5860 5857 5854 5850 5847 5843 5839 5835 5831 5827 5822 5817 5812 5807 5802 5797 5792 5787 5782 5777 5773 5768 5763 5759 5755 5751 5748 5747 5746 5746 5747 5750 5752 5755 5758 5762 5766 5770 5775 5781 5786 5791 5796
5855 5852 5848 5844 5840 5836 5832 5828 5823 5818 5813 5808 5803 5797 5792 5786 5780 5774 5767 5761 5754 5748 5742 5735 5730 5725 5721 5718 5716 5717 5719 5722 5725 5730 5735 5740 5744 5749 5755 5762 5768 5774 5780
5851 5847 5842 5838 5833 5829 5824 5820 5815 5809 5804 5799 5793 5787 5781 5775 5768 5761 5753 5745 5736 5728 5719 5710 5702 5695 5689 5685 5681 5680 5682 5687 5693 5699 5706 5712 5718 5725 5733 5741 5748 5755 5763
5845 5841 5837 5832 5827 5822 5817 5812 5807 5801 5795 5789 5783 5777 5770 5763 5755 5747 5738 5729 5719 5708 5697 5685 5674 5664 5656 5650 5645 5642 5642 5645 5652 5661 5671 5679 5688 5697 5707 5716 5725 5734 5743
5839 5835 5831 5826 5821 5815 5810 5804 5799 5793 5786 5780 5773 5766 5759 5750 5741 5732 5722 5711 5699 5686 5671 5657 5643 5630 5620 5612 5607 5604 5603 5604 5610 5618 5630 5641 5652 5664 5676 5688 5699 5710 5720
5834 5829 5824 5819 5814 5808 5802 5796 5790 5783 5776 5769 5762 5755 5746 5737 5727 5715 5703 5689 5674 5657 5640 5623 5608 5595 5585 5576 5570 5567 5566 5566 5570 5577 5588 5599 5612 5627 5642 5656 5669 5682 5694
5828 5823 5818 5812 5806 5801 5795 5788 5781 5774 5767 5759 5751 5743 5733 5723 5711 5697 5682 5664 5644 5623 5604 5586 5572 5561 5552 5545 5539 5534 5532 5532 5534 5539 5548 5558 5571 5587 5604 5620 5636 5651 5666
5823 5817 5811 5805 5799 5793 5787 5780 5773 5766 5758 5749 5740 5730 5719 5706 5692 5675 5657 5636 5613 5591 5571 5555 5542 5532 5523 5515 5509 5503 5500 5500 5502 5505 5512 5522 5534 5548 5564 5582 5599 5617 5634
5817 5812 5806 5799 5793 5786 5779 5772 5765 5756 5748 5738 5727 5715 5702 5687 5671 5651 5630 5606 5583 5563 5545 5531 5518 5506 5494 5484 5476 5470 5467 5466 5468 5472 5479 5489 5500 5512 5527 5544 5561 5580 5600
5812 5806 5800 5793 5785 5778 5771 5764 5755 5746 5736 5725 5713 5699 5684 5667 5648 5626 5603 5579 5557 5539 5523 5509 5494 5480 5467 5453 5443 5437 5432 5431 5434 5438 5446 5456 5467 5480 5493 5508 5525 5544 5564
5807 5801 5794 5786 5779 5771 5763 5755 5745 5735 5723 5711 5697 5682 5665 5646 5625 5602 5578 5556 5537 5520 5503 5487 5471 5455 5440 5426 5415 5408 5402 5399 5400 5405 5413 5422 5433 5447 5460 5475 5490 5507 5528
5802 5795 5788 5780 5772 5763 5754 5745 5734 5722 5710 5696 5682 5665 5647 5626 5603 5580 5557 5536 5518 5501 5484 5467 5451 5433 5416 5401 5391 5384 5378 5372 5371 5374 5379 5389 5401 5415 5428 5442 5457 5474 5497
5798 5790 5781 5773 5764 5754 5745 5735 5723 5710 5697 5682 5666 5648 5629 5607 5583 5560 5538 5519 5501 5483 5466 5448 5430 5414 5397 5382 5372 5364 5358 5348 5343 5344 5349 5361 5374 5386 5399 5413 5429 5447 5469
5792 5784 5775 5765 5755 5745 5735 5724 5712 5699 5684 5669 5652 5633 5611 5588 5565 5542 5522 5504 5486 5468 5450 5431 5412 5396 5381 5366 5353 5343 5335 5329 5320 5317 5322 5332 5344 5357 5371 5387 5405 5426 5447
5786 5778 5768 5757 5747 5736 5724 5713 5700 5686 5671 5655 5637 5617 5595 5571 5548 5527 5508 5490 5472 5453 5435 5416 5397 5380 5367 5355 5340 5327 5315 5306 5302 5298 5298 5307 5320 5335 5351 5369 5387 5405 5423
5780 5770 5760 5749 5738 5726 5714 5702 5688 5674 5659 5643 5624 5603 5581 5557 5534 5514 5496 5477 5459 5441 5422 5403 5384 5367 5354 5343 5333 5322 5309 5296 5288 5286 5285 5290 5300 5315 5331 5349 5367 5386 5404
5773 5763 5753 5741 5729 5717 5704 5691 5677 5663 5647 5630 5611 5591 5568 5545 5523 5503 5485 5467 5448 5430 5411 5392 5374 5358 5344 5333 5324 5315 5306 5296 5285 5279 5278 5280 5289 5301 5317 5334 5352 5370 5385
5767 5756 5745 5733 5721 5708 5695 5681 5667 5652 5636 5619 5600 5579 5557 5535 5513 5494 5476 5457 5439 5420 5402 5383 5365 5350 5337 5326 5317 5309 5302 5294 5286 5279 5275 5275 5281 5291 5304 5321 5337 5352 5365
Wind_Speed
8 9 10 11 12 14 15 17 19 20 22 23 24 26 27 29 30 31 33 34 35 35 36 36 36 36 36 36 36 36 37 38 39 39 40 38 36 33 30 28 26 26 27
9 10 12 13 15 16 18 19 21 22 24 25 27 28 29 30 32 33 35 36 37 38 39 40 40 40 40 39 39 39 38 37 38 40 42 43 41 39 37 34 31 30 30
11 13 14 16 17 19 20 22 23 25 26 28 30 31 33 34 35 36 37 39 40 41 42 42 43 43 43 43 43 42 42 41 40 41 43 43 44 44 43 40 37 35 34
14 16 17 18 20 21 23 24 25 27 28 30 32 34 35 37 39 40 41 43 44 44 45 46 46 47 47 47 46 46 45 44 44 45 45 44 45 46 46 45 44 42 39
17 18 19 21 22 23 25 26 28 29 31 33 35 37 39 41 43 44 46 47 48 49 50 51 52 52 53 53 53 52 51 49 48 48 49 48 48 48 47 47 48 47 45
19 20 21 23 24 25 27 29 30 32 34 37 39 41 43 44 46 48 50 51 53 54 55 56 57 58 59 59 59 59 59 57 55 54 53 53 52 52 51 50 50 50 49
21 22 23 24 26 28 30 32 34 36 38 40 42 43 45 47 49 51 53 55 57 59 60 62 63 63 64 65 66 66 66 65 64 63 61 59 57 57 56 54 53 52 52
22 23 25 27 29 31 33 36 38 40 41 43 45 47 49 52 54 56 58 60 62 64 65 67 68 69 70 70 71 72 72 71 71 70 69 67 64 63 61 59 58 56 55
24 26 28 30 33 35 37 38 40 42 44 46 48 51 54 57 60 63 65 67 69 70 72 74 75 77 78 78 79 79 78 78 78 77 76 75 73 71 68 65 63 61 60
28 30 32 34 36 37 39 40 42 44 47 49 52 55 58 61 65 68 71 73 75 78 80 83 86 88 90 91 91 91 89 87 86 85 83 82 81 79 76 73 69 67 65
32 34 35 37 38 39 40 42 44 47 49 52 55 59 62 65 68 71 74 77 80 84 88 93 96 100 102 104 105 105 104 102 98 95 93 90 88 87 84 81 78 74 71
34 35 36 37 38 40 42 44 46 49 52 55 58 62 65 68 71 74 77 81 85 91 96 101 106 109 112 114 115 116 116 115 112 108 105 101 98 95 92 89 86 83 79
34 35 36 37 39 41 44 46 49 52 55 58 61 65 68 70 73 77 81 86 92 98 104 109 113 115 116 117 117 117 117 117 117 116 114 111 108 104 100 96 93 90 86
34 35 37 38 41 43 46 49 52 55 58 61 64 67 69 73 76 80 86 93 100 106 110 112 112 110 107 104 102 102 102 104 107 110 113 113 113 111 107 103 99 96 93
35 37 39 40 43 46 48 51 54 57 60 64 67 69 71 75 79 85 92 99 105 109 109 105 98 92 87 84 84 85 85 87 89 93 99 103 108 111 112 109 105 102 98
37 38 40 42 45 48 50 53 56 59 62 65 68 70 73 78 84 91 97 103 105 103 97 90 84 81 80 81 81 82 82 82 83 84 87 90 95 101 107 109 109 107 104
38 40 42 44 47 50 53 55 58 61 64 66 69 72 76 82 88 95 100 102 100 92 85 81 80 81 82 83 83 83 82 82 82 83 83 85 87 92 97 103 107 109 108
40 41 44 47 49 52 54 56 59 62 65 67 70 74 79 86 93 98 100 98 91 83 80 80 81 81 81 81 80 79 78 80 81 81 82 82 84 86 90 96 102 106 109
41 44 46 48 50 52 54 56 59 62 65 68 72 77 83 90 95 98 97 90 83 79 79 79 79 79 77 74 70 67 66 67 71 75 79 80 82 84 87 91 98 104 108
42 45 46 48 50 52 54 56 60 63 66 70 74 80 86 92 96 96 91 84 79 78 78 77 77 75 72 67 61 58 58 60 61 65 71 77 79 82 86 90 95 101 106
43 45 47 49 50 51 54 57 61 64 68 71 77 82 89 94 96 92 85 79 78 77 76 76 75 71 65 61 57 55 54 56 57 60 64 71 76 79 83 88 93 99 104
46 48 49 50 51 52 54 58 62 65 69 73 78 84 91 94 93 87 81 77 77 76 75 75 74 68 61 58 57 56 53 48 48 52 58 65 73 79 82 86 90 94 99
49 51 53 54 55 55 57 60 63 67 70 75 80 86 91 93 89 83 78 76 75 75 74 74 72 66 59 54 54 55 54 46 36 37 48 58 69 76 79 81 84 89 95
51 54 57 59 60 60 60 62 65 69 72 76 81 87 91 90 85 79 76 76 74 74 74 73 70 64 58 52 49 47 47 45 35 24 34 48 61 72 77 77 79 83 89
53 56 59 63 64 64 63 64 67 70 73 77 83 87 89 87 82 77 75 75 74 74 73 72 67 61 55 50 46 43 39 37 33 22 18 34 50 64 72 74 74 77 82
56 59 62 65 68 69 67 67 69 72 74 78 83 87 88 84 79 75 74 74 74 73 73 71 65 59 52 46 41 38 36 33 29 22 13 19 36 53 65 70 71 74 77
Wind_Direction
3 351 340 331 325 321 318 314 311 309 306 304 302 301 299 298 296 295 294 293 292 290 288 286 284 282 280 279 277 274 271 269 267 265 263 261 260 256 253 251 248 247 245
344 332 325 321 319 317 314 311 309 307 306 305 303 302 300 297 296 294 293 291 290 289 287 285 283 281 278 277 275 274 272 270 268 266 263 261 259 257 254 251 248 246 245
327 322 321 320 318 315 313 311 310 309 308 307 306 304 302 300 298 296 294 292 290 288 286 284 283 281 278 276 273 271 270 269 267 265 263 261 259 257 254 251 248 245 244
324 322 321 319 317 315 314 313 312 310 309 308 307 305 303 302 300 298 296 293 291 288 286 283 281 280 278 276 273 270 268 266 265 263 262 261 260 258 255 253 249 246 244
323 321 321 320 318 316 314 312 311 310 309 307 306 304 303 301 299 298 296 294 291 288 285 283 280 278 277 275 273 271 268 265 262 261 260 260 259 258 255 253 251 248 245
323 323 322 320 318 315 313 312 311 310 308 307 306 304 303 301 300 299 297 295 293 291 288 285 282 279 277 275 273 271 269 266 263 260 259 257 256 256 255 253 251 249 247
323 323 322 320 317 314 313 313 312 311 310 309 307 306 305 304 302 301 299 297 295 293 290 288 285 282 279 276 274 271 269 267 264 261 258 256 254 254 253 252 251 249 247
322 322 321 319 317 316 315 315 314 313 312 311 311 310 309 308 306 304 302 299 297 294 291 288 286 283 280 277 274 272 269 267 264 262 259 256 253 252 251 250 250 249 247
322 322 320 319 318 317 317 316 315 315 314 314 313 312 310 308 306 304 302 300 297 295 292 289 286 284 281 278 275 272 269 266 263 261 259 257 254 252 250 248 248 247 246
322 321 320 319 318 318 317 317 316 316 316 315 313 311 309 307 306 304 302 300 298 296 293 291 289 286 284 281 278 274 270 266 262 259 257 255 253 252 250 248 246 245 244
322 321 320 319 318 318 318 318 318 317 316 314 312 310 308 307 306 304 302 301 299 297 295 293 291 289 286 283 280 277 273 269 264 260 257 254 252 250 249 247 245 244 243
321 320 320 319 319 319 320 319 318 317 315 313 311 309 308 307 306 305 303 302 300 298 296 294 291 289 286 283 281 278 275 272 268 264 259 256 252 250 248 246 244 243 241
321 321 321 321 321 321 321 320 319 317 315 313 311 310 309 308 307 306 305 303 301 299 297 294 291 288 286 283 281 278 275 272 269 266 261 258 254 251 247 245 243 241 240
323 323 323 324 323 323 322 321 319 317 315 313 312 312 311 310 309 308 307 305 303 300 297 294 291 289 286 284 281 277 274 271 268 265 261 258 254 251 247 244 242 239 238
325 326 326 325 324 323 321 320 318 316 315 314 313 313 312 311 311 310 309 307 304 301 299 297 295 292 288 284 280 276 272 268 264 261 258 255 252 249 246 244 241 238 236
328 328 327 325 323 321 320 319 317 316 315 315 314 314 314 314 314 313 311 308 306 304 303 301 299 296 292 287 283 278 273 268 263 258 254 250 248 246 243 241 239 237 234
330 328 326 323 321 320 319 318 317 317 316 316 315 316 316 317 316 315 313 311 310 309 307 305 303 299 296 292 286 281 275 270 264 259 253 248 244 241 239 237 236 234 232
331 328 325 322 321 320 319 318 318 318 318 318 318 318 319 319 319 318 316 315 314 313 311 309 306 304 300 296 291 284 278 270 264 258 253 248 242 238 235 233 231 230 229
332 329 325 322 321 320 320 320 320 321 321 321 321 322 322 322 322 321 320 319 318 316 315 313 311 309 306 301 296 289 282 275 266 258 251 246 241 236 232 229 227 225 225
337 333 329 325 322 321 321 322 323 323 324 324 324 325 325 325 325 324 323 322 321 320 319 317 316 314 311 306 301 295 289 280 270 259 250 243 238 234 230 226 224 222 221
344 340 335 330 327 325 325 326 327 327 327 327 327 327 328 328 328 327 326 325 324 324 323 322 321 319 316 311 307 302 296 288 275 261 250 241 235 232 228 225 222 220 218
349 346 342 338 334 331 329 329 330 330 330 330 330 330 331 331 331 330 329 329 328 327 327 326 326 324 321 318 315 312 308 298 282 264 249 238 231 228 226 223 221 219 217
351 350 348 345 341 337 334 333 334 334 333 332 332 332 333 334 334 333 332 332 332 331 331 331 330 328 325 323 321 321 321 316 298 269 249 235 228 225 225 223 220 218 217
352 351 351 349 346 342 339 337 337 336 335 334 334 334 336 336 336 335 335 335 335 334 334 335 334 331 328 326 325 326 328 328 321 289 252 236 226 222 221 221 219 217 216
352 352 351 351 349 346 342 340 339 338 337 336 336 337 338 339 338 337 337 338 338 338 338 338 337 334 330 327 326 328 332 336 336 326 268 238 227 220 218 218 218 217 216
354 353 352 351 351 349 346 343 342 340 339 338 338 340 341 341 340 340 340 340 340 341 341 341 339 336 331 327 325 327 331 338 344 344 317 245 228 220 216 215 216 216 216